Content
SEND FEEDBACK

Daily
Averages
Monthly
Summary
Italy

MANFREDONIA, ITALY


Home > Europe > Italy
Elevation: 182 feet     Latitude: 41 32N     Longitude: 015 42E

WEATHER
 
SELECT A DAY
Number of Records: 127,815;   Date Range: 7/1/96 - 9/15/14
 
SHARE

PRINT THIS DATA

[ ← Previous Day ]
WEATHER ALMANAC - JANUARY 31, 2013
[ Next Day → ]
[ °C ]   °F
Weather ElementAverageHighLow
Temperature47.9 °F55.4 °F (2:55 pm)37 °F (7:00 am)
Dewpoint43.6 °F50 °F (12:55 pm)32 °F (6:55 am)
Humidity83.5 %88 % (12:55 pm)76 % (10:00 am)
Barometer30.14 in30.19 in (1:00 pm)30.04 in (6:55 am)
Wind Speed10.1 mph20.7 mph (11:55 am)
Weather ElementAverage
Visibility3.6 mi
Wind DirectionW (266.2 °)

Weather ElementTotal
Precipitation---
Heating Degree Days18.8 (Base 65)
Averaged from 21 records on January 31, 2013
WEATHER CONDITIONS BREAKOUT
WIND DIRECTION BREAKOUT
WEATHER BY HOUR - JANUARY 31, 2013
[ °C ]   °F
Local TimeTemperatureDewpointHumidityBarometerVisibilityWind DirectionWind SpeedGust SpeedPrecipitationEventsConditions
6:55 AM37.4 °F32.0 °F81 %30.04 in5.0 miWest (270°)4.6 mphPartly Cloudy
7:00 AM37.0 °F33.0 °F79 %30.06 in5.0 miWest (270°)4.6 mphMist
7:55 AM39.2 °F33.8 °F81 %30.09 in5.0 miWest (280°)8.1 mphMostly Cloudy
8:55 AM42.8 °F37.4 °F81 %30.12 in3.1 miWNW (300°)6.9 mphPartly Cloudy
9:22 AM42.8 °F37.4 °F81 %30.12 in1.9 miWest (280°)12.7 mphScattered Clouds
9:55 AM50.0 °F44.6 °F82 %30.12 in2.5 miWNW (290°)8.1 mphScattered Clouds
10:00 AM50.0 °F45.0 °F76 %30.15 in2.0 miWNW (290°)8.1 mphMist
10:55 AM51.8 °F46.4 °F82 %30.18 in2.8 miWSW (250°)15.0 mphScattered Clouds
11:55 AM50.0 °F46.4 °F87 %30.18 in3.1 miWNW (290°)20.7 mphScattered Clouds
12:55 PM53.6 °F50.0 °F88 %30.18 in3.7 miWNW (300°)17.3 mphScattered Clouds
1:00 PM54.0 °F49.0 °F79 %30.19 in3.0 miWNW (300°)17.3 mphMist
1:55 PM53.6 °F50.0 °F88 %30.15 in3.7 miNW (310°)12.7 mphScattered Clouds
2:55 PM55.4 °F50.0 °F82 %30.15 in3.7 miWest (280°)16.1 mphScattered Clouds
3:55 PM53.6 °F50.0 °F88 %30.15 in3.7 miWest (280°)15.0 mphScattered Clouds
4:00 PM54.0 °F50.0 °F80 %30.17 in4.0 miWest (280°)15.0 mphMist
4:55 PM51.8 °F48.2 °F88 %30.15 in3.7 miWest (280°)8.1 mphPartly Cloudy
5:55 PM50.0 °F46.4 °F87 %30.15 in3.7 miWest (280°)6.9 mphPartly Cloudy
6:55 PM46.4 °F42.8 °F87 %30.15 in3.7 miWSW (240°)5.8 mphPartly Cloudy
7:00 PM46.0 °F42.0 °F83 %30.17 in4.0 miWSW (240°)5.8 mphMist
7:55 PM44.6 °F41.0 °F87 %30.12 in3.7 miWest (280°)2.3 mphPartly Cloudy
8:55 PM42.8 °F39.2 °F87 %30.12 in3.7 miCalmPartly Cloudy
Hourly data recorded from LIBA, located miles away from Manfredonia, Italy







STORIES FROM OUR PARTNERS